N1IJV-10 Weather Reports


time (UTC)temp
C
wind
direction
speed
KPH
gust
KPH
rain 1hr
cm
rain 24hr
cm
rain mn
cm
humidity
%
barometer
mb
20260504195921 27 204 4.8 14.5 0.00 0.00 0.00 38 998.5
20260504195416 27 113 1.6 20.9 0.00 0.00 0.00 40 998.8
20260504194913 26 135 4.8 11.3 0.00 0.00 0.00 40 998.7
20260504194409 26 205 1.6 9.7 0.00 0.00 0.00 42 999.0
20260504193905 27 105 4.8 16.1 0.00 0.00 0.00 39 999.0
20260504193403 26 227 1.6 9.7 0.00 0.00 0.00 44 999.1
20260504192901 25 119 3.2 11.3 0.00 0.00 0.00 41 999.3
20260504192358 25 225 4.8 8.0 0.00 0.00 0.00 43 999.2
20260504191857 25 340 6.4 14.5 0.00 0.00 0.00 42 999.3
20260504191354 27 209 11.3 14.5 0.00 0.00 0.00 38 999.0
20260504190849 26 267 4.8 11.3 0.00 0.00 0.00 38 999.2
20260504190346 27 357 3.2 11.3 0.00 0.00 0.00 38 999.2
20260504185843 26 74 3.2 8.0 0.00 0.00 0.00 37 999.0
20260504185339 26 197 8.0 17.7 0.00 0.00 0.00 38 999.3
20260504184835 26 208 3.2 16.1 0.00 0.00 0.00 39 999.3
20260504184332 26 229 16.1 22.5 0.00 0.00 0.00 37 999.4
20260504183827 26 165 4.8 14.5 0.00 0.00 0.00 38 999.2
20260504183325 26 125 3.2 4.8 0.00 0.00 0.00 36 999.5
20260504182822 26 156 1.6 14.5 0.00 0.00 0.00 37 999.5
20260504182320 26 212 6.4 12.9 0.00 0.00 0.00 33 999.5
20260504181817 26 219 8.0 11.3 0.00 0.00 0.00 34 999.5
20260504181314 26 338 6.4 11.3 0.00 0.00 0.00 36 999.5
20260504180813 25 263 3.2 8.0 0.00 0.00 0.00 42 999.6
20260504180311 25 239 6.4 11.3 0.00 0.00 0.00 39 999.7
20260504175809 25 239 6.4 9.7 0.00 0.00 0.00 39 999.9
20260504175305 25 235 4.8 12.9 0.00 0.00 0.00 38 999.8
20260504174804 25 124 4.8 4.8 0.00 0.00 0.00 41 1000.0
20260504174301 25 153 6.4 9.7 0.00 0.00 0.00 40 999.8
20260504173757 25 166 3.2 12.9 0.00 0.00 0.00 38 1000.0
20260504173254 25 155 1.6 9.7 0.00 0.00 0.00 41 1000.1
20260504172751 25 236 11.3 16.1 0.00 0.00 0.00 38 1000.4
20260504172247 25 166 6.4 11.3 0.00 0.00 0.00 41 1000.2
20260504171743 24 263 6.4 12.9 0.00 0.00 0.00 41 1000.2
20260504171241 24 3 6.4 16.1 0.00 0.00 0.00 41 1000.3
20260504170738 23 42 1.6 11.3 0.00 0.00 0.00 42 1000.4
20260504170235 23 92 1.6 11.3 0.00 0.00 0.00 42 1000.4
20260504160153 22 260 6.4 11.3 0.00 0.00 0.00 45 1001.4
20260504151121 21 154 3.2 8.0 0.00 0.00 0.00 48 1002.0
20260504150619 21 11 1.6 4.8 0.00 0.00 0.00 50 1002.0
20260504150115 20 213 6.4 8.0 0.00 0.00 0.00 49 1002.1
20260504141044 18 176 4.8 8.0 0.00 0.00 0.00 57 1002.6
20260504140540 17 106 1.6 3.2 0.00 0.00 0.00 60 1002.8
20260504130505 13 108 0.0 4.8 0.00 0.00 0.00 73 1003.4
20260504110352 8 112 0.0 0.0 0.00 0.00 0.00 89 1003.6
20260504100309 8 97 0.0 1.6 0.00 0.00 0.00 87 1003.9
20260504081703 8 114 0.0 0.0 0.00 0.00 0.00 88 1003.7
20260504081159 8 91 0.0 1.6 0.00 0.00 0.00 90 1003.5
20260504080655 8 98 0.0 0.0 0.00 0.00 0.00 89 1003.6
20260504080152 8 118 0.0 0.0 0.00 0.00 0.00 89 1003.5
20260504070120 11 108 0.0 0.0 0.00 0.00 0.00 79 1004.4
20260504050508 13 116 0.0 1.6 0.00 0.00 0.00 74 1005.4
20260504050005 13 120 0.0 1.6 0.00 0.15 0.15 74 1005.4
20260504045501 13 168 1.6 3.2 0.00 0.15 0.15 73 1005.3
20260504044957 13 106 0.0 3.2 0.00 0.15 0.15 73 1005.2
20260504044455 13 112 0.0 1.6 0.00 0.15 0.15 73 1005.5
20260504043952 13 141 1.6 1.6 0.00 0.15 0.15 72 1005.2
20260504043449 13 102 0.0 1.6 0.00 0.15 0.15 72 1005.2
20260504042947 13 160 3.2 4.8 0.00 0.15 0.15 72 1005.3
20260504042443 13 261 1.6 4.8 0.00 0.15 0.15 71 1005.4
20260504041940 13 118 0.0 1.6 0.00 0.15 0.15 71 1005.2
20260504041436 13 218 1.6 3.2 0.00 0.15 0.15 70 1005.4
20260504040932 13 127 1.6 4.8 0.00 0.15 0.15 70 1005.2
20260504040430 14 169 3.2 4.8 0.00 0.15 0.15 69 1005.2
20260504035926 14 43 3.2 4.8 0.00 0.15 0.15 69 1005.1
20260504035423 14 172 3.2 3.2 0.00 0.15 0.15 69 1005.1
20260504034920 14 161 1.6 3.2 0.00 0.15 0.15 68 1005.3
20260504034418 14 144 0.0 4.8 0.00 0.15 0.15 67 1005.2
20260504033914 14 101 0.0 3.2 0.00 0.15 0.15 67 1005.2
20260504033412 14 113 1.6 3.2 0.00 0.15 0.15 66 1005.4
20260504032909 15 124 1.6 3.2 0.00 0.15 0.15 66 1005.4
20260504032406 15 115 1.6 8.0 0.00 0.15 0.15 66 1005.6
20260504031902 15 117 0.0 1.6 0.00 0.15 0.15 65 1005.5
20260504031359 15 128 0.0 3.2 0.00 0.15 0.15 64 1005.6
20260504030856 15 105 0.0 1.6 0.00 0.15 0.15 64 1005.6
20260504030353 15 124 1.6 3.2 0.00 0.15 0.15 64 1005.7
20260504025849 15 105 1.6 3.2 0.00 0.15 0.15 63 1005.7
20260504025346 15 270 3.2 3.2 0.00 0.15 0.15 63 1005.7
20260504024843 15 257 1.6 3.2 0.00 0.15 0.15 62 1005.8
20260504024339 16 115 0.0 1.6 0.00 0.15 0.15 61 1005.7
20260504023836 16 130 1.6 8.0 0.00 0.15 0.15 60 1005.6
20260504023333 16 242 3.2 4.8 0.00 0.15 0.15 60 1005.6
20260504022828 16 105 1.6 4.8 0.00 0.15 0.15 60 1005.8
20260504022326 16 180 4.8 4.8 0.00 0.15 0.15 60 1005.6
20260504021822 16 208 3.2 4.8 0.00 0.15 0.15 60 1005.5
20260504021320 16 94 1.6 3.2 0.00 0.15 0.15 60 1005.5
20260504020817 16 164 4.8 8.0 0.00 0.15 0.15 59 1005.6
20260504020313 16 234 6.4 8.0 0.00 0.15 0.15 59 1005.4
20260504015809 16 100 1.6 4.8 0.00 0.15 0.15 58 1005.4
20260504015305 16 140 1.6 4.8 0.00 0.15 0.15 58 1005.3
20260504014802 16 199 3.2 4.8 0.00 0.15 0.15 58 1005.3
20260504014258 17 123 1.6 3.2 0.00 0.15 0.15 58 1005.4
20260504013756 17 315 4.8 4.8 0.00 0.15 0.15 57 1005.2
20260504013253 17 285 4.8 9.7 0.00 0.15 0.15 57 1005.5
20260504012749 17 264 3.2 3.2 0.00 0.15 0.15 56 1005.3
20260504012248 17 145 4.8 9.7 0.00 0.15 0.15 56 1005.0
20260504011744 17 276 4.8 11.3 0.00 0.15 0.15 55 1005.2
20260504011241 17 196 3.2 9.7 0.00 0.15 0.15 56 1005.1
20260504010737 17 139 3.2 4.8 0.00 0.15 0.15 55 1005.0
20260504010232 17 196 3.2 4.8 0.00 0.15 0.15 56 1005.1
20260504005730 17 124 4.8 8.0 0.00 0.15 0.15 56 1005.1
20260504005227 17 192 3.2 3.2 0.00 0.15 0.15 55 1005.1
20260504004724 17 190 3.2 4.8 0.00 0.15 0.15 54 1005.0
20260504004221 18 147 3.2 3.2 0.00 0.15 0.15 54 1005.1
20260504003718 18 341 3.2 9.7 0.00 0.15 0.15 52 1005.1
20260504003215 18 287 4.8 9.7 0.00 0.15 0.15 52 1004.8
20260504002712 18 203 6.4 9.7 0.00 0.15 0.15 51 1005.0
20260504002209 18 240 4.8 8.0 0.00 0.15 0.15 51 1005.1
20260504001707 19 1 3.2 11.3 0.00 0.15 0.15 50 1004.9
20260504001203 19 177 6.4 9.7 0.00 0.15 0.15 50 1005.1
20260504000700 19 183 4.8 11.3 0.00 0.15 0.15 49 1005.1
20260504000157 19 260 3.2 12.9 0.00 0.15 0.15 49 1004.9
20260503235655 19 188 3.2 9.7 0.00 0.15 0.15 49 1005.0
20260503235151 20 116 1.6 8.0 0.00 0.15 0.15 49 1004.8
20260503234649 19 223 1.6 9.7 0.00 0.15 0.15 49 1005.1
20260503234148 20 197 4.8 14.5 0.00 0.15 0.15 48 1005.1
20260503233644 20 286 6.4 9.7 0.00 0.15 0.15 48 1005.0
20260503233140 20 316 4.8 8.0 0.00 0.15 0.15 48 1005.3
20260503232637 20 199 1.6 11.3 0.00 0.15 0.15 49 1005.1
20260503232134 20 180 4.8 12.9 0.00 0.15 0.15 48 1005.1
20260503231632 20 241 8.0 14.5 0.00 0.15 0.15 47 1005.0
20260503231128 20 296 8.0 11.3 0.00 0.15 0.15 48 1005.2
20260503230625 20 194 8.0 12.9 0.00 0.15 0.15 47 1005.3
20260503230123 20 261 8.0 11.3 0.00 0.15 0.15 47 1005.2
20260503225620 20 207 3.2 8.0 0.00 0.15 0.15 47 1005.2
20260503225119 20 146 9.7 20.9 0.00 0.15 0.15 47 1005.3
20260503224617 20 338 4.8 20.9 0.00 0.15 0.15 47 1005.4
20260503224115 20 251 4.8 11.3 0.00 0.15 0.15 47 1005.3
20260503223613 20 293 8.0 16.1 0.00 0.15 0.15 46 1005.4
20260503223108 20 168 8.0 16.1 0.00 0.15 0.15 45 1005.4
20260503222606 19 31 6.4 24.1 0.00 0.15 0.15 46 1005.6
20260503222104 20 244 11.3 14.5 0.00 0.15 0.15 45 1005.3
20260503221602 20 196 4.8 14.5 0.00 0.15 0.15 45 1005.6
20260503221059 20 110 4.8 11.3 0.00 0.15 0.15 45 1005.5
20260503220555 20 172 9.7 12.9 0.00 0.15 0.15 45 1005.8
20260503220052 20 148 6.4 8.0 0.00 0.15 0.15 45 1005.7
20260503215549 20 152 9.7 14.5 0.00 0.15 0.15 44 1005.7
20260503215046 20 333 4.8 11.3 0.00 0.15 0.15 45 1005.8
20260503214544 20 270 8.0 9.7 0.00 0.15 0.15 42 1005.7
20260503214041 20 296 9.7 16.1 0.00 0.15 0.15 43 1005.8
20260503213539 20 75 3.2 8.0 0.00 0.15 0.15 45 1006.0
20260503213035 20 186 6.4 12.9 0.00 0.15 0.15 47 1005.9
20260503212533 20 68 4.8 14.5 0.00 0.15 0.15 45 1006.1
20260503212030 18 142 3.2 8.0 0.00 0.15 0.15 48 1006.3
20260503211527 18 80 3.2 12.9 0.00 0.15 0.15 48 1006.4
20260503211023 18 264 4.8 9.7 0.00 0.15 0.15 47 1006.3
20260503210520 20 293 4.8 14.5 0.00 0.15 0.15 46 1006.4
20260503210015 19 258 8.0 14.5 0.00 0.15 0.15 45 1006.8
20260503205512 19 265 6.4 16.1 0.00 0.15 0.15 44 1006.8
20260503205009 19 216 11.3 17.7 0.00 0.15 0.15 44 1006.9
20260503204506 20 298 9.7 16.1 0.00 0.15 0.15 44 1007.1
20260503204002 20 289 6.4 17.7 0.00 0.15 0.15 44 1007.0
20260503203500 18 77 8.0 11.3 0.00 0.15 0.15 46 1007.1
20260503202956 18 197 8.0 14.5 0.00 0.15 0.15 45 1007.4
20260503202455 18 202 6.4 24.1 0.00 0.15 0.15 45 1007.5
20260503201953 18 291 9.7 14.5 0.00 0.15 0.15 44 1007.5
20260503201450 17 200 6.4 12.9 0.00 0.15 0.15 46 1007.6
20260503200947 18 316 9.7 16.1 0.00 0.15 0.15 45 1007.6
20260503200444 18 244 14.5 22.5 0.00 0.15 0.15 44 1007.6